Regional Weather Roundup
Issued by NWS

Home | Current Version | Previous Version | Graphics & Text | Print | Product List | Glossary On
Versions: 1 2 3 4 5 6 7 8 9 10 11 12 13 14 15 16 17 18 19 20 21 22 23 24 25 26 27 28 29 30 31 32 33 34 35 36 37 38 39 40 41 42 43 44 45 46 47 48 49 50
000
ASUS43 KLOT 011021
RWRIL

ILLINOIS REGIONAL WEATHER ROUNDUP
NATIONAL WEATHER SERVICE CHICAGO/ROMEOVILLE IL
500 AM CDT TUE SEP 01 2015

NOTE: "FAIR" INDICATES FEW OR NO CLOUDS BELOW 12,000 FEET WITH NO
SIGNIFICANT WEATHER AND/OR OBSTRUCTIONS TO VISIBILITY.

* THESE STATIONS ARE NOT UNDER NWS QUALITY CONTROL. THEY ALSO MAY NOT
  REPORT WEATHER SUCH AS PRECIPITATION OR FOG.

ILZ001-002-007-009-015-016-024-011100-
NORTHWEST ILLINOIS

CITY           SKY/WX    TMP DP  RH WIND       PRES   REMARKS
MOLINE         PTCLDY    73  69  87 CALM      30.00R
STERLING*      CLEAR     72  72 100 CALM      30.00S
SAVANNA*       CLEAR     70  68  93 CALM      30.00R FOG
$$

ILZ003-004-008-010-011-017-018-011100-
NORTH CENTRAL ILLINOIS

CITY           SKY/WX    TMP DP  RH WIND       PRES   REMARKS
ROCKFORD       PTCLDY    70  67  90 S5        30.03S FOG
FREEPORT*      CLEAR     69  68  96 S5        30.03R FOG
ROCHELLE*      MOCLDY    69  68  98 CALM      30.04R FOG
DE KALB*       MOCLDY    69  68  98 S7        30.04S FOG
PERU*          CLEAR     71  69  93 S7        30.03S
$$

ILZ005-006-012>014-019>023-011100-
NORTHEAST ILLINOIS

CITY           SKY/WX    TMP DP  RH WIND       PRES   REMARKS
CHICAGO-OHARE  CLEAR     70  68  93 CALM      30.03S
CHICAGO-MIDWAY PTCLDY    75  69  81 S6        30.03F
AURORA         PTCLDY    68  66  93 E3        30.04S FOG
LANSING*       CLEAR     68  68  98 S5        30.05S FOG
JOLIET*        CLEAR     71  70  98 CALM      30.04S FOG
WAUKEGAN       CLEAR     69  67  93 SW5       30.02S FOG
DUPAGE AIRPORT CLEAR     69  67  93 SE3       30.04R FOG
KANKAKEE*      PTCLDY    69  68  96 CALM      30.06S
WHEELING       CLEAR     68  66  93 CALM      30.04S FOG
MORRIS*          N/A     68  67  97 S3        30.03S FOG
ROMEOVILLE*    CLEAR     69  69  98 S5        30.04S FOG
NORTHERLY ISL    N/A     74  68  81 S6          N/A
$$

LMZ740>746-011100-
SOUTHERN LAKE MICHIGAN

STATION/POSITION SKY/WX   TEMP    WIND        PRES    VSBY  WAVE
                          AIR SEA DIR/SP/G                  HT/PER
                          (F)     (DEG/KT/KT) (MB)    (MI)  (FT/S)
SOUTHERN BUOY              71 69  170/  8/  8 1016.6F         0
WILMETTE HARBOR            68 61  340/  4/  6   N/A           1
HARRISON CRIB              74     180/ 12/ 13   N/A
BURNHAM HARBOR             74     210/  4/  6   N/A
CALUMET HARBOR             73     190/  4/  5   N/A
BURNS HARBOR               73     190/  8/ 11 1017.9S
MICHIGAN CITY              75     160/ 11/ 13   N/A
MICHIGAN CITY 6N           73 72  200/  6/  8   N/A           1
ST. JOSEPH                 72 71  230/  6/  8   N/A           0
$$

ILZ025>027-034>036-040-047-049-050-058-095>099-011100-
WEST-CENTRAL ILLINOIS

CITY           SKY/WX    TMP DP  RH WIND       PRES   REMARKS
QUINCY         CLEAR     72  70  93 S7        30.04R
GALESBURG*     CLEAR     71  69  95 S7        30.03R
MACOMB*        CLEAR     73  71  93 SW5       30.05R
JACKSONVILLE*  CLEAR     75  72  88 S7        30.05S
PITTSFIELD*    CLEAR     74  70  88 S3        30.06R
$$

ILZ028>032-037-038-041>044-048-051>054-059>061-011100-
CENTRAL ILLINOIS

CITY           SKY/WX    TMP DP  RH WIND       PRES   REMARKS
PONTIAC        CLEAR     71  71  99 S3        30.05S FOG
BLOOMINGTON    CLEAR     73  72  97 SW8       30.07S
DECATUR        CLEAR     73  68  84 S8        30.07R
PEORIA         PTCLDY    74  70  87 S6        30.04S FOG
LACON*         CLEAR     71  69  93 S3        30.02S
LINCOLN*       PTCLDY    72  69  91 CALM      30.05S
SPRINGFIELD    CLEAR     74  71  91 SW7       30.05S
TAYLORVILLE    CLEAR     70  68  94 S3        30.07S
$$

ILZ033-039-045-046-055>057-062-063-011100-
EAST-CENTRAL ILLINOIS

CITY           SKY/WX    TMP DP  RH WIND       PRES   REMARKS
CHAMPAIGN      TSTM      73  68  84 S15G23    30.08S
RANTOUL*       CLEAR     70  69  96 S5        30.08R FOG
MATTOON        CLOUDY    71  68  90 S9        30.08R THUNDER
PARIS*         MOCLDY    68  67  97 CALM      30.10S
$$

ILZ079-100>102-011100-
SOUTHWEST ILLINOIS

CITY           SKY/WX    TMP DP  RH WIND       PRES   REMARKS
ALTON          CLEAR     68  68  98 S3        30.08R FOG
BELLEVILLE     MOCLDY    71  71 100 E2        30.07R
CAHOKIA*       PTCLDY    72  69  90 CALM      30.07R
SPARTA*        CLEAR     72  68  89 S3        30.10R
$$

ILZ064>066-069>071-074>076-080>082-084>086-088>090-092>094-011100-
SOUTH-CENTRAL ILLINOIS

CITY           SKY/WX    TMP DP  RH WIND       PRES   REMARKS
CARBONDALE     PTCLDY    67  66  97 CALM      30.09R FOG
CAIRO*           N/A     65  65 100 CALM      30.10R FOG
EFFINGHAM*     CLEAR     71  67  87 S3        30.10S
MARION         CLOUDY    70  68  94 S3        30.10S
MT. VERNON     CLEAR     68  63  83 CALM      30.11R
SALEM*         PTCLDY    73  69  89 S3        30.09S
METROPOLIS*    CLEAR     65  65 100 CALM      30.11R FOG
$$

ILZ067-068-072-073-078-083-087-091-011100-
SOUTHEAST ILLINOIS

CITY           SKY/WX    TMP DP  RH WIND       PRES   REMARKS
LAWRENCEVILLE  CLEAR     67  66  97 CALM      30.10R FOG
FLORA*         CLEAR     67  66  95 S3        30.10S
FAIRFIELD*     PTCLDY    67  67  99 CALM      30.09S
HARRISBURG*    CLEAR     66  65  99 CALM      30.11R
ROBINSON*      CLEAR     65  64  96 SE3       30.11R FOG
CARMI*         FOG       64  64 100 CALM      30.10R VSB 1/2
$$

ABBREVIATIONS USED IN REMARKS
   TC - TEMPERATURE IN CELSIUS
  WCI - WIND CHILL INDEX
   HX - HEAT INDEX
  VSB - VISIBILITY
$$




USA.gov is the U.S. government's official web portal to all federal, state and local government web resources and services.